Miscellaneous Local Product
Issued by NWS Hastings, NE

Home | Current Version | Previous Version | Graphics & Text | Print | Product List | Glossary On
Versions: 1 2 3 4 5 6 7 8 9 10 11 12 13 14 15 16 17 18 19 20 21 22 23 24 25 26 27 28 29 30 31 32 33 34 35 36 37 38 39 40 41 42 43 44 45 46 47 48 49 50
000
AXUS43 KGID 300002
MISGRI

GID CWA HOURLY WEATHER ROUNDUP
NATIONAL WEATHER SERVICE HASTINGS NE
700 PM CDT WED JUL 29 2015

NOTE: "FAIR" INDICATES FEW OR NO CLOUDS BELOW 12,000 FEET WITH NO
SIGNIFICANT WEATHER AND/OR OBSTRUCTIONS TO VISIBILITY.

...SOUTH CENTRAL NEBRASKA...

CITY           SKY/WX    TMP DP  RH WIND       PRES   REMARKS
GRAND ISLAND   MOSUNNY   80  53  39 SW7       30.19F
HASTINGS       MOSUNNY   81  51  35 CALM      30.20F
KEARNEY        SUNNY     81  52  36 SE7       30.20F
ORD            SUNNY     83  53  35 W7        30.16F
YORK           MOSUNNY   79  63  57 CALM      30.19S
AURORA         MOSUNNY   78  59  52 SW7       30.19F
LEXINGTON      SUNNY     82  50  32 SE7       30.21F
HOLDREGE       SUNNY     78  49  36 E3        30.22F
HEBRON         PTSUNNY   80  55  43 CALM      30.18F

...NEBRASKA PANHANDLE...

CITY           SKY/WX    TMP DP  RH WIND       PRES   REMARKS
CHADRON        SUNNY     86  48  26 NE5       30.15F
ALLIANCE       SUNNY     83  49  30 S14       30.20S
SCOTTSBLUFF    SUNNY     86  50  28 E12       30.18F
SIDNEY         SUNNY     81  45  28 S17       30.24F

...WESTERN AND NORTH CENTRAL NEBRASKA...

CITY           SKY/WX    TMP DP  RH WIND       PRES   REMARKS
VALENTINE      SUNNY     85  46  25 W10       30.15F
AINSWORTH      SUNNY     80  49  33 SW5       30.17F
ONEILL         SUNNY     84  50  30 W7        30.16F
BROKEN BOW     SUNNY     82  51  34 SW6       30.20F
IMPERIAL       SUNNY     84  39  20 SE15      30.21F
NORTH PLATTE   SUNNY     81  47  30 S8        30.20F
MCCOOK         SUNNY     83  48  29 SE10      30.20F

...EASTERN NEBRASKA...

CITY           SKY/WX    TMP DP  RH WIND       PRES   REMARKS
NORFOLK        SUNNY     85  50  29 W3        30.13F
SO SIOUX CITY  SUNNY     82  61  48 W7        30.10F
TEKAMAH        SUNNY     82  65  56 SW5       30.12F
COLUMBUS       SUNNY     81  57  44 SW8       30.15S
ALBION         SUNNY     85  48  28 W5        30.16F
OMAHA EPPLEY   PTSUNNY   82  57  42 W6        30.13F
OFFUTT AFB     PTSUNNY   80  58  45 SW5       30.14S
MILLARD        PTSUNNY   81  57  44 W5        30.14F
LINCOLN        PTSUNNY   83  54  36 W5        30.17F
NEBRASKA CITY  PTSUNNY   79  55  43 CALM      30.16S
BEATRICE       CLOUDY    81  57  44 CALM      30.17S
FALLS CITY     SUNNY     80  64  58 CALM      30.14F

...NORTHERN KANSAS...

CITY           SKY/WX    TMP DP  RH WIND       PRES   REMARKS
GOODLAND       SUNNY     79  45  29 SE13      30.24F
HILL CITY      SUNNY     83  52  34 E12       30.19F
NORTON         CLEAR     81  45  28 E7        30.19F
PHILLIPSBURG   SUNNY     84  52  32 E10       30.18F
SMITH CENTER   SUNNY     82  52  34 NE10      30.19S
HAYS           PTSUNNY   81  50  34 E16       30.18F
RUSSELL        PTSUNNY   82  56  40 E17       30.16F
CONCORDIA      MOSUNNY   81  60  48 E7        30.17F
SALINA         PTSUNNY   84  69  60 NE9       30.14F
TOPEKA         MOSUNNY   83  68  60 NE7       30.14F



USA.gov is the U.S. government's official web portal to all federal, state and local government web resources and services.